TISAT 1

Last updated on Tue Jul 01 2025 00:03:44 GMT+0000 (Coordinated Universal Time)

1 36799U 10035E 25181.30606347 .00008490 00000+0 43293-3 0 9993 2 36799 98.0574 96.6559 0004364 50.3489 309.8127 15.17020724814119
UTC large
Height (km)
Speed (km/s)
/
Latitude / Longitude
Inclination (degrees)
Orbital Period (minutes)
Azimuth
Elevation
Range (km)
Doppler Factor

Next 0 passes for location: London (51.5072 / 0.1276)

Sorry there are no passes over London.